Location: Ajisawe
(8.4333°N, 4.3833°E)
Time: 21:35:10
(UTC+00:00)

Vanguard 2 Rocket - Pass Details

Date: 19 April 2021
Orbit: 554 x 3326 km, 32.9° (Epoch: 16 May)

Event Time Altitude Azimuth Distance (km) Brightness Sun altitude
Rises 13:14:53 0° 268° (W) 6,191 11.5 66.8°
Reaches altitude 10° 13:18:59 10° 275° (W) 5,495 11.4 65.8°
Maximum altitude 13:35:28 41° 340° (NNW) 4,179 11.1 61.8°
Drops below altitude 10° 13:53:47 10° 46° (NE) 6,004 11.0 57.3°
Sets 13:58:38 0° 54° (NE) 6,781 11.1 56.1°
